Orbital Elements at Epoch 2459000.5 (2020-May-31.0) TDB
Reference: JPL 4 (heliocentric ecliptic J2000)
Element | Value | Uncertainty (1-sigma) | Units |
e | .1864239378623694 | 2.044e-07 | |
a | 3.054685163691106 | 1.8269e-07 | au |
q | 2.485218726546054 | 6.4947e-07 | au |
i | 19.66847844968819 | 2.2593e-05 | deg |
node | 46.10476939106569 | 2.569e-05 | deg |
peri | 4.945131595528114 | 3.9396e-05 | deg |
M | 233.8157624836394 | 2.9029e-05 | deg |
tp | 2459684.019198259441 (2022-Apr-14.51919826) | 0.00019491 | TDB |
period | 1950.060611504623 5.34 | 0.00017494 4.79e-07 | d yr |
n | .1846096464264421 | 1.6561e-08 | deg/d |
Q | 3.624151600836159 | 2.1675e-07 | au |
|
| | Orbit Determination Parameters
Additional Information
|